Regional Weather Roundup
Issued by NWS Northern Indiana

Home | Current Version | Previous Version | Graphics & Text | Print | Product List | Glossary On
Versions: 1 2 3 4 5 6 7 8 9 10 11 12 13 14 15 16 17 18 19 20 21 22 23 24 25 26 27 28 29 30 31 32 33 34 35 36 37 38 39 40 41 42 43 44 45 46 47 48 49 50
000
ASUS43 KIWX 210710
RWRIWX

KIWX WEATHER ROUNDUP
NATIONAL WEATHER SERVICE NORTHERN INDIANA
300 AM EDT SUN SEP 21 2014

NOTE: "FAIR" INDICATES FEW OR NO CLOUDS BELOW 12,000 FEET WITH NO
SIGNIFICANT WEATHER AND/OR OBSTRUCTIONS TO VISIBILITY.

* THESE STATIONS ARE NOT UNDER NWS QUALITY CONTROL. THEY ALSO MAY NOT
  REPORT WEATHER SUCH AS PRECIPITATION OR FOG.

INZ001>027-210800-
NORTHERN INDIANA

CITY           SKY/WX    TMP DP  RH WIND       PRES   REMARKS
GARY*          PTCLDY    66  62  88 W5        29.73F
VALPARAISO     LGT RAIN  64  60  87 W9G25     29.74S
MICHIGAN CITY* LGT RAIN  66  64  94 SW8G24    29.71S
LAPORTE*       HVY RAIN  67  67 100 W28G41    29.75R
KNOX*          PTCLDY    67  65  92 SW9       29.72F
SOUTH BEND     CLOUDY    68  66  93 SW14      29.70F
GOSHEN         CLOUDY   N/A N/A N/A SW14      29.72F
MONTICELLO*    CLEAR     68  67  98 SW9       29.77F
LOGANSPORT*    MOCLDY    68  64  88 SW12      29.78F
ROCHESTER*     MOCLDY    70  70 100 SW12      29.75F
WARSAW*        CLOUDY    68  66  94 SW6       29.74F
ANGOLA*        CLOUDY    66  55  68 SW9       29.72F
FORT WAYNE     LGT RAIN  68  66  93 SW14      29.76F
HUNTINGTON*    CLOUDY    67  66  99 SW9G16    29.76F
PERU/GRISSOM   PTCLDY    68  68 100 SW15      29.77F
MARION*        CLOUDY    68  67  98 SW9       29.79F

$$
INZ028>050-210800-
CENTRAL INDIANA

CITY           SKY/WX    TMP DP  RH WIND       PRES   REMARKS
LAFAYETTE      PTCLDY    68  67  96 W5        29.79F
KOKOMO*        MOCLDY    70  66  88 W14G20    29.79F
MUNCIE*        TSTM      69  65  86 N10       29.82R FOG
INDIANAPOLIS   CLOUDY    72  66  81 SW16      29.83S

$$
MIZ043>046-050>051-056>058-064>065-071>073-077>080-210800-
SOUTHWEST LOWER MICHIGAN

CITY           SKY/WX    TMP DP  RH WIND       PRES   REMARKS
BATTLE CREEK   CLOUDY    67  65  93 S15       29.67F FOG
BENTON HARBOR  LGT RAIN  69  66  90 SW16G29   29.67F
COLDWATER*     MOCLDY    67  65  96 SW6       29.70F
HILLSDALE*     LGT RAIN  66  66 100 SW8G16    29.72F
HOLLAND        TSTM      63  60  90 W13G22    29.64F
GRAND RAPIDS   LGT RAIN  66  66 100 S10       29.66S
KALAMAZOO      CLOUDY    67  65  93 S13       29.67F FOG
STURGIS*       CLOUDY    64  64 100 SW7       29.70F
THREE RIVERS*  CLOUDY    67  66  97 SW8       29.69F

$$
OHZ001>008-015>018-024>025-210800-
NORTHWEST OHIO

CITY           SKY/WX    TMP DP  RH WIND       PRES   REMARKS
WAUSEON*       CLOUDY    64  64 100 S9        29.73F
DEFIANCE       MOCLDY   N/A N/A N/A SW9       29.74F
FINDLAY        CLOUDY    67  64  90 S10       29.76F
TOLEDO EXPRESS CLOUDY    64  63  96 SW8       29.74F
TOLEDO METCALF CLOUDY    66  62  87 S9        29.74F
LIMA           LGT RAIN  70  66  87 SW15      29.80F FOG

$$
AND FOR LAKE MICHIGAN COASTAL AND OPEN LAKE BUOY OBSERVATIONS

STATION/POSITION TEMP    WIND        PRES    VSBY  WAVE
                 AIR SEA DIR/SP/G                  HT/PER
                 (F)     (DEG/KT/KT) (MB)    (MI)  (FT/S)
CALUMET HARBOR    65     220/  7/ 10 1005.1R
MICHIGAN CITY     67     230/ 25/ 33   N/A
SAINT JOSEPH      69     200/ 21/ 27 1005.8S
SOUTH LAKE BUOY   63 63  270/ 14/ 16 1004.4R         2/ 3
4 MI NW BRIDGMAN  68 65  230/ 21/ 33   N/A           3/ 3
MICHIGAN CITY     67 66  240/ 17/ 23   N/A           3/ 3

$$
&&


USA.gov is the U.S. government's official web portal to all federal, state and local government web resources and services.